Simultaneous Nadir Overpasses (SNOs) Predictions

Prediction of SNOs between AQUA and NOAA-19 Satellite Orbit:

Table of predicted SNOs for the next 14.0 days since TLE Epoch: 9/19/2014
Index Date (AQUA) Time (AQUA) Lat,Lon (AQUA) SZA (AQUA ) Date (NOAA-19) Time (NOAA-19) Lat,Lon (NOAA-19) SZA (NOAA-19 ) Distance(km) Time Diff (sec)
1 09/20/2014 03:23:17 -78.21, -70.37 102.42 09/20/2014 03:22:35 -78.21, -70.30 102.42 1.63 42
2 09/20/2014 04:12:34 77.76, 99.36 77.03 09/20/2014 04:13:30 77.76, 99.37 77.01 0.59 56
3 09/22/2014 08:08:18 -79.87,-151.62 99.31 09/22/2014 08:07:04 -79.69,-152.27 99.38 23.81 74
4 09/22/2014 08:56:57 77.93, 27.51 78.08 09/22/2014 08:57:20 77.93, 27.54 78.08 0.79 23
5 09/24/2014 13:41:19 78.08, -44.26 79.11 09/24/2014 13:41:09 78.07, -44.16 79.10 2.46 10
6 09/26/2014 18:25:43 78.34,-116.56 80.27 09/26/2014 18:25:01 78.34,-116.59 80.29 0.73 42
7 09/26/2014 19:15:00 -77.94, 52.94 100.21 09/26/2014 19:15:47 -77.95, 52.89 100.21 1.27 47
8 09/28/2014 23:10:27 79.41, 166.16 82.54 09/28/2014 23:09:13 79.29, 165.83 82.48 15.03 74
9 09/28/2014 23:59:20 -78.04, -18.59 99.24 09/28/2014 23:59:34 -78.04, -18.50 99.26 2.21 14




NCC Satellite Simultaneous Nadir Overpasses (SNOs) Prediction Service
